Location: ???? ???
(30.5005°N, 60.5936°E)
Time: 13:33:41
(UTC+00:00)

deb Chang Zheng 4 - Pass Details

Date: 07 June 2020
Orbit: 602 x 628 km, 98.6° (Epoch: 06 July)

Event Time Altitude Azimuth Distance (km) Brightness Sun altitude
Rises 00:04:03 0° 5° (N) 2,872 7.6 -10.2°
Reaches altitude 10° 00:06:17 10° 359° (N) 1,961 6.6 -9.8°
Maximum altitude 00:10:22 47° 286° (WNW) 805 3.9 -9.1°
Drops below altitude 10° 00:14:24 10° 212° (SSW) 1,941 5.5 -8.4°
Enters shadow 00:14:53 - 211° (SSW) 2,133 5.8 -8.3°
